Weather History for Livingston, MT

Change the Weather History Date:

Tuesday, February 26, 2013

  Actual Average Record
Temperature  
Mean Temperature 30 °F 31 °F  
Max Temperature 36 °F 43 °F 64 °F (1950)
Min Temperature 23 °F 20 °F -19 °F (1962)
Degree Days  
Heating Degree Days 36 34  
Month to date heating degree days 938  
Since 1 July heating degree days 5279  
Moisture  
Dew Point 15 °F    
Average Humidity 57    
Maximum Humidity 72    
Minimum Humidity 43    
Precipitation  
Precipitation 0.00 in 0.02 in 0.12 in (2004)
Month to date precipitation 0.46  
Year to date precipitation 0.95  
Sea Level Pressure  
Sea Level Pressure 30.16 in    
Wind  
Wind Speed 15 mph (West)    
Max Wind Speed 22 mph    
Max Gust Speed 25 mph    
Visibility 10 miles    
Events      
T = Trace of Precipitation, MM = Missing Value Source: NWS Daily Summary

Daily Weather History Graph

Daily Weather History Graph

Search for Another Location

Airport:

Trip Planner

Search our weather history database for the weather conditions in past years. The results will help you decide how hot, cold, wet, or windy it might be!

Date:

Astronomy

Feb. 26, 2013 Rise Set
Actual Time 7:05 AM MST 6:04 PM MST
Civil Twilight 6:35 AM MST 6:34 PM MST
Nautical Twilight 6:00 AM MST 7:09 PM MST
Astronomical Twilight 5:26 AM MST 7:43 PM MST
Moon 7:32 PM MST (2/26) 7:04 AM MST (2/26)
Length of Visible Light 11h 59m
Length of Day
10h 59m
Full, 99% of the Moon is Illuminated
Feb 26
Full
Mar 4
Last Quarter
Mar 11
New
Mar 19
First Quarter
Mar 27
Full

Hourly Weather History & Observations

Time (MST) Temp. Windchill Dew Point Humidity Pressure Visibility Wind Dir Wind Speed Gust Speed Precip Events Conditions
12:53 AM 28.0 °F 16.5 °F 14.0 °F 56% 29.99 in 10.0 mi WSW 15.0 mph - N/A   Clear
1:53 AM 28.0 °F 18.1 °F 15.1 °F 58% 30.01 in 10.0 mi WSW 11.5 mph - N/A   Overcast
2:53 AM 28.9 °F 16.5 °F 16.0 °F 58% 30.00 in 10.0 mi WSW 18.4 mph 23.0 mph N/A   Overcast
3:53 AM 27.0 °F 13.9 °F 16.0 °F 63% 30.02 in 10.0 mi WSW 18.4 mph - N/A   Clear
4:53 AM 26.1 °F 12.3 °F 14.0 °F 60% 30.04 in 10.0 mi WSW 19.6 mph - N/A   Clear
5:53 AM 26.1 °F 14.0 °F 14.0 °F 60% 30.09 in 10.0 mi WSW 15.0 mph - N/A   Mostly Cloudy
6:53 AM 27.0 °F 15.6 °F 12.9 °F 56% 30.09 in 10.0 mi WSW 13.8 mph - N/A   Overcast
7:53 AM 28.0 °F 15.3 °F 14.0 °F 56% 30.11 in 10.0 mi WSW 18.4 mph - N/A   Overcast
8:53 AM 28.0 °F 15.7 °F 14.0 °F 56% 30.13 in 10.0 mi WSW 17.3 mph - N/A   Overcast
9:53 AM 28.9 °F 17.7 °F 15.1 °F 56% 30.16 in 10.0 mi WSW 15.0 mph - N/A   Overcast
10:53 AM 30.0 °F 16.9 °F 17.1 °F 59% 30.17 in 10.0 mi WSW 21.9 mph - N/A   Mostly Cloudy
11:53 AM 34.0 °F 23.0 °F 17.1 °F 50% 30.16 in 10.0 mi WSW 18.4 mph 24.2 mph N/A   Partly Cloudy
12:53 PM 35.1 °F 25.9 °F 17.1 °F 48% 30.15 in 10.0 mi West 13.8 mph 21.9 mph 0.00 in   Overcast
1:53 PM 34.0 °F 25.5 °F 15.1 °F 46% 30.17 in 10.0 mi NW 11.5 mph - N/A   Overcast
2:53 PM 33.1 °F 27.7 °F 15.1 °F 48% 30.18 in 10.0 mi West 5.8 mph - 0.00 in   Mostly Cloudy
3:53 PM 36.0 °F 25.6 °F 15.1 °F 43% 30.18 in 10.0 mi West 18.4 mph - N/A   Mostly Cloudy
4:53 PM 35.1 °F 24.5 °F 17.1 °F 48% 30.20 in 10.0 mi West 18.4 mph 25.3 mph N/A   Overcast
5:53 PM 30.9 °F 24.3 °F 17.1 °F 57% 30.23 in 10.0 mi West 6.9 mph - N/A   Scattered Clouds
6:53 PM 26.1 °F 16.2 °F 16.0 °F 66% 30.26 in 10.0 mi WNW 10.4 mph - N/A   Clear
7:53 PM 25.0 °F 14.8 °F 14.0 °F 63% 30.27 in 10.0 mi WSW 10.4 mph - N/A   Clear
8:53 PM 23.0 °F 14.7 °F 12.9 °F 65% 30.29 in 10.0 mi West 6.9 mph - N/A   Clear
9:53 PM 23.0 °F 12.4 °F 15.1 °F 72% 30.29 in 10.0 mi NNW 10.4 mph - N/A   Overcast
10:53 PM 25.0 °F 16.3 °F 15.1 °F 66% 30.29 in 10.0 mi NNW 8.1 mph - N/A   Overcast
11:53 PM 25.0 °F 16.3 °F 16.0 °F 69% 30.27 in 10.0 mi NNW 8.1 mph - N/A   Overcast